Location: Audinghen
(50.8518°N, 1.6129°E)
Time: 09:47:39
(UTC+00:00)

Landsat 5 - Pass Details

Date: 07 August 2020
Orbit: 529 x 653 km, 98.2° (Epoch: 20 September)

Event Time Altitude Azimuth Distance (km) Brightness Sun altitude
Rises 03:19:08 0° 164° (SSE) 2,683 6.6 -9.9°
Reaches altitude 10° 03:21:13 10° 164° (SSE) 1,808 5.7 -9.7°
Maximum altitude 03:25:07 90° 226° (SW) 563 3.3 -9.2°
Drops below altitude 10° 03:29:12 10° 345° (NNW) 1,885 6.4 -8.7°
Sets 03:31:23 0° 346° (NNW) 2,809 7.3 -8.4°
